This is the latest recevied weather packets stored in our database for station/object N9BLE. If no packets are shown the sender has not sent any weather packets the latest 10 day(s).
| Time | Temp. | Humidity | Pressure | Rain* | Wind** | Luminosity | Snow |
|---|---|---|---|---|---|---|---|
| 1777732336 | 6.67° C | 57% | 1024.2 hPa | 0 mm | - | 45 W/m² | - |
| 1777732033 | 7.22° C | 58% | 1024.2 hPa | 0 mm | - | 56 W/m² | - |
| 1777731730 | 6.67° C | 61% | 1023.9 hPa | 0 mm | - | 45 W/m² | - |
| 1777731426 | 6.67° C | 62% | 1024.2 hPa | 0 mm | - | 44 W/m² | - |
| 1777731125 | 6.67° C | 69% | 1023.9 hPa | 0 mm | - | 44 W/m² | - |
| 1777730823 | 6.67° C | 71% | 1023.9 hPa | 0 mm | - | 43 W/m² | - |
| 1777730520 | 6.11° C | 71% | 1023.9 hPa | 0 mm | - | 46 W/m² | - |
| 1777730215 | 6.11° C | 75% | 1023.9 hPa | 0 mm | - | 55 W/m² | - |
| 1777729912 | 6.11° C | 75% | 1024 hPa | 0 mm | - | 87 W/m² | - |
| 1777729608 | 6.11° C | 75% | 1024 hPa | 0 mm | - | 43 W/m² | - |
| 1777729305 | 5.56° C | 77% | 1023.9 hPa | 0 mm | - | 46 W/m² | - |
| 1777729002 | 5.56° C | 77% | 1024 hPa | 0 mm | - | 103 W/m² | - |
| 1777728699 | 5.56° C | 79% | 1024 hPa | 0 mm | - | 82 W/m² | - |
| 1777728395 | 5° C | 78% | 1023.8 hPa | 0 mm | - | 71 W/m² | - |
| 1777728093 | 5° C | 78% | 1023.9 hPa | 0 mm | - | 50 W/m² | - |
| 1777727790 | 5° C | 75% | 1023.6 hPa | 0 mm | - | 190 W/m² | - |
| 1777727487 | 5° C | 74% | 1023.9 hPa | 0 mm | - | 53 W/m² | - |
| 1777727184 | 5.56° C | 76% | 1023.8 hPa | 0 mm | - | 64 W/m² | - |
| 1777726882 | 4.44° C | 80% | 1023.8 hPa | 0 mm | - | 211 W/m² | - |
| 1777726578 | 3.89° C | 82% | 1023.8 hPa | 0 mm | - | 199 W/m² | - |
| 1777726276 | 3.33° C | 84% | 1023.9 hPa | 0 mm | - | 185 W/m² | - |
| 1777725972 | 3.33° C | 86% | 1023.8 hPa | 0 mm | - | 170 W/m² | - |
| 1777725669 | 2.78° C | 87% | 1023.7 hPa | 0 mm | - | 155 W/m² | - |
| 1777725367 | 2.78° C | 89% | 1023.8 hPa | 0 mm | - | 139 W/m² | - |
| 1777725064 | 2.22° C | 92% | 1023.7 hPa | 0 mm | - | 125 W/m² | - |
* Rain latest hour (hover to see other rain measurements)
** Current wind speed in m/s (hover to see current wind gust speed)